Location: Kmicica-DOM
(53.1202°N, 23.2052°E)
Time: 05:08:30
(UTC+02:00)

USA 276 - Pass Details

Date: 11 August 2022
Orbit: 366 x 369 km, 50.0° (Epoch: 12 July)

Event Time Altitude Azimuth Distance (km) Brightness Sun altitude
Exits shadow 04:20:19 - 207° (SSW) 1,673 4.7 -6.0°
Reaches altitude 10° 04:21:21 10° 196° (SSW) 1,346 4.4 -5.9°
Maximum altitude 04:23:27 17° 152° (SSE) 1,000 4.1 -5.6°
Drops below altitude 10° 04:25:33 10° 107° (ESE) 1,351 5.4 -5.4°
Sets 04:28:00 0° 87° (E) 2,201 7.1 -5.1°
